Location: Leedale
(52.5833°N, 114.4833°W)
Time: 07:39:19
(UTC+00:00)

BlueWalker 3 - Pass Details

Date: 12 August 2024
Orbit: 476 x 487 km, 53.2° (Epoch: 08 September)

Event Time Altitude Azimuth Distance (km) Brightness Sun altitude
Exits shadow 10:39:03 18° 253° (WSW) 1,279 3.5 -12.7°
Maximum altitude 10:41:50 85° 167° (SSE) 501 1.8 -12.4°
Drops below altitude 10° 10:45:40 10° 78° (ENE) 1,692 5.5 -12.0°
Sets 10:47:51 0° 78° (ENE) 2,576 6.6 -11.8°
